When you browse on this site, cookies collect data to enhance your experience and personalize the content and advertising you see.
Visit our Privacy Policy to learn more. By continuing to use the site, you agree to this use of cookies and data.
  • Em Portugal
  • Lista de países
  • Para 7 dias
  • Temperatura da água
  • Mapas de satélite
  • Mapa do tempo
  • Widgets de tempo
  • user-avatar
    Iniciar Sessão

    Previsão horária em Sarafovo

    Hoje, 17 Fevereiro, Domingo

    Tempo Temperatura Precipitação Vento Pressão Humidade
    00:00 +4°C° 0 mm 2 m/s 768 mmHg 77%
    01:00 +3°C° 0 mm 2 m/s 768 mmHg 77%
    02:00 +3°C° 0 mm 2 m/s 768 mmHg 77%
    03:00 +3°C° 0 mm 2 m/s 768 mmHg 77%
    04:00 +3°C° 0 mm 2 m/s 768 mmHg 76%
    05:00 +3°C° 0 mm 2 m/s 768 mmHg 76%
    06:00 +3°C° 0 mm 2 m/s 768 mmHg 75%
    07:00 +3°C° 0 mm 2 m/s 768 mmHg 74%
    08:00 +3°C° 0 mm 2 m/s 768 mmHg 72%
    09:00 +5°C° 0 mm 2 m/s 768 mmHg 66%
    10:00 +7°C° 0 mm 2 m/s 768 mmHg 59%
    11:00 +9°C° 0 mm 2 m/s 768 mmHg 52%
    12:00 +11°C° 0 mm 1 m/s 767 mmHg 49%
    13:00 +12°C° 0 mm 1 m/s 767 mmHg 47%
    14:00 +13°C° 0 mm 1 m/s 766 mmHg 44%
    15:00 +13°C° 0 mm 1 m/s 766 mmHg 47%
    16:00 +13°C° 0 mm 1 m/s 766 mmHg 50%
    17:00 +12°C° 0 mm 1 m/s 765 mmHg 53%
    18:00 +11°C° 0 mm 1 m/s 765 mmHg 56%
    19:00 +10°C° 0 mm 1 m/s 765 mmHg 59%
    20:00 +9°C° 0 mm 1 m/s 765 mmHg 62%
    21:00 +9°C° 0 mm 1 m/s 765 mmHg 63%
    22:00 +8°C° 0 mm 1 m/s 765 mmHg 64%
    23:00 +7°C° 0 mm 2 m/s 765 mmHg 65%

    Amanhã, 18 Fevereiro, Segunda-feira

    Tempo Temperatura Precipitação Vento Pressão Humidade
    00:00 +7°C° 0 mm 2 m/s 765 mmHg 65%
    01:00 +7°C° 0 mm 2 m/s 765 mmHg 65%
    02:00 +6°C° 0 mm 2 m/s 765 mmHg 65%
    03:00 +6°C° 0 mm 2 m/s 765 mmHg 64%
    04:00 +6°C° 0 mm 2 m/s 765 mmHg 64%
    05:00 +6°C° 0 mm 2 m/s 765 mmHg 63%
    06:00 +6°C° 0 mm 2 m/s 765 mmHg 63%
    07:00 +6°C° 0 mm 2 m/s 765 mmHg 64%
    08:00 +6°C° 0 mm 2 m/s 765 mmHg 64%
    09:00 +8°C° 0 mm 2 m/s 765 mmHg 60%
    10:00 +9°C° 0 mm 2 m/s 765 mmHg 55%
    11:00 +12°C° 0 mm 2 m/s 766 mmHg 51%
    12:00 +13°C° 0 mm 1 m/s 765 mmHg 48%
    13:00 +14°C° 0 mm 1 m/s 765 mmHg 46%
    14:00 +15°C° 0 mm 1 m/s 765 mmHg 44%
    15:00 +14°C° 0 mm 2 m/s 765 mmHg 48%
    16:00 +14°C° 0 mm 2 m/s 765 mmHg 52%
    17:00 +13°C° 0 mm 2 m/s 764 mmHg 56%
    18:00 +12°C° 0 mm 2 m/s 765 mmHg 62%
    19:00 +9°C° 0 mm 2 m/s 765 mmHg 68%
    20:00 +8°C° 0 mm 2 m/s 765 mmHg 74%
    21:00 +8°C° 0 mm 2 m/s 765 mmHg 76%
    22:00 +8°C° 0 mm 1 m/s 765 mmHg 78%
    23:00 +8°C° 0 mm 1 m/s 766 mmHg 80%

    Depois de amanhã, 19 Fevereiro, Terça-feira

    Tempo Temperatura Precipitação Vento Pressão Humidade
    00:00 +8°C° 0 mm 1 m/s 766 mmHg 82%
    01:00 +7°C° 0 mm 1 m/s 766 mmHg 83%
    02:00 +7°C° 0 mm 1 m/s 766 mmHg 85%
    03:00 +7°C° 0 mm 1 m/s 765 mmHg 85%
    04:00 +7°C° 0 mm 1 m/s 765 mmHg 86%
    05:00 +6°C° 0 mm 1 m/s 765 mmHg 87%
    06:00 +7°C° 0 mm 1 m/s 765 mmHg 87%
    07:00 +7°C° 0 mm 1 m/s 766 mmHg 86%
    08:00 +7°C° 0 mm 1 m/s 766 mmHg 86%
    09:00 +9°C° 0 mm 1 m/s 766 mmHg 79%
    10:00 +9°C° 0 mm 2 m/s 766 mmHg 72%
    11:00 +12°C° 0 mm 2 m/s 766 mmHg 65%
    12:00 +12°C° 0 mm 3 m/s 766 mmHg 62%
    13:00 +12°C° 0 mm 3 m/s 765 mmHg 59%
    14:00 +13°C° 0 mm 3 m/s 765 mmHg 56%
    15:00 +12°C° 0 mm 3 m/s 765 mmHg 60%
    16:00 +12°C° 0 mm 3 m/s 764 mmHg 64%
    17:00 +11°C° 0 mm 4 m/s 764 mmHg 68%
    18:00 +10°C° 0 mm 4 m/s 764 mmHg 75%
    19:00 +9°C° 0 mm 3 m/s 764 mmHg 82%
    20:00 +8°C° 0 mm 3 m/s 764 mmHg 89%
    21:00 +8°C° 0 mm 3 m/s 764 mmHg 90%
    22:00 +7°C° 0 mm 3 m/s 764 mmHg 90%
    23:00 +7°C° 0 mm 2 m/s 764 mmHg 90%

    20 Fevereiro, Quarta-feira

    Tempo Temperatura Precipitação Vento Pressão Humidade
    00:00 +7°C° 0 mm 2 m/s 764 mmHg 89%
    01:00 +7°C° 0 mm 2 m/s 764 mmHg 89%
    02:00 +8°C° 0 mm 1 m/s 764 mmHg 88%
    03:00 +7°C° 0 mm 1 m/s 763 mmHg 88%
    04:00 +6°C° 0 mm 2 m/s 763 mmHg 87%
    05:00 +6°C° 0 mm 2 m/s 763 mmHg 87%
    06:00 +6°C° 0 mm 2 m/s 763 mmHg 86%
    07:00 +6°C° 0 mm 2 m/s 763 mmHg 84%
    08:00 +6°C° 0 mm 2 m/s 763 mmHg 83%
    09:00 +8°C° 0 mm 2 m/s 763 mmHg 75%
    10:00 +10°C° 0 mm 3 m/s 763 mmHg 67%
    11:00 +12°C° 0 mm 3 m/s 763 mmHg 60%
    12:00 +13°C° 0 mm 3 m/s 763 mmHg 53%
    13:00 +16°C° 0 mm 3 m/s 763 mmHg 47%
    14:00 +17°C° 0 mm 3 m/s 762 mmHg 41%
    15:00 +16°C° 0 mm 2 m/s 762 mmHg 43%
    16:00 +16°C° 0 mm 2 m/s 762 mmHg 45%
    17:00 +15°C° 0 mm 2 m/s 762 mmHg 48%
    18:00 +14°C° 0 mm 2 m/s 763 mmHg 50%
    19:00 +13°C° 0 mm 2 m/s 763 mmHg 53%
    20:00 +10°C° 0 mm 2 m/s 763 mmHg 56%
    21:00 +10°C° 0 mm 2 m/s 764 mmHg 59%
    22:00 +9°C° 0 mm 2 m/s 764 mmHg 61%
    23:00 +9°C° 0 mm 3 m/s 764 mmHg 63%

    21 Fevereiro, Quinta-feira

    Tempo Temperatura Precipitação Vento Pressão Humidade
    00:00 +8°C° 0 mm 3 m/s 764 mmHg 67%
    01:00 +8°C° 0 mm 3 m/s 765 mmHg 71%
    02:00 +8°C° 0 mm 3 m/s 765 mmHg 74%
    03:00 +7°C° 0 mm 2 m/s 765 mmHg 76%
    04:00 +7°C° 0 mm 2 m/s 765 mmHg 78%
    05:00 +6°C° 0 mm 2 m/s 765 mmHg 80%
    06:00 +7°C° 0 mm 2 m/s 765 mmHg 79%
    07:00 +8°C° 0 mm 1 m/s 765 mmHg 78%
    08:00 +8°C° 0 mm 1 m/s 766 mmHg 77%
    09:00 +9°C° 0 mm 1 m/s 766 mmHg 69%
    10:00 +11°C° 0 mm 1 m/s 766 mmHg 60%
    11:00 +12°C° 0 mm 1 m/s 766 mmHg 51%
    12:00 +13°C° 0 mm 1 m/s 766 mmHg 48%
    13:00 +14°C° 0 mm 1 m/s 765 mmHg 44%
    14:00 +15°C° 0 mm 1 m/s 765 mmHg 41%
    15:00 +14°C° 0 mm 1 m/s 765 mmHg 43%
    16:00 +14°C° 0 mm 1 m/s 765 mmHg 46%
    17:00 +14°C° 0 mm 2 m/s 765 mmHg 49%
    18:00 +12°C° 0 mm 2 m/s 765 mmHg 54%
    19:00 +11°C° 0 mm 1 m/s 765 mmHg 58%
    20:00 +10°C° 0 mm 1 m/s 765 mmHg 63%
    21:00 +9°C° 0 mm 1 m/s 765 mmHg 62%
    22:00 +9°C° 0 mm 1 m/s 765 mmHg 62%
    23:00 +8°C° 0 mm 2 m/s 765 mmHg 61%

    22 Fevereiro, Sexta-feira

    Tempo Temperatura Precipitação Vento Pressão Humidade
    00:00 +7°C° 0 mm 2 m/s 765 mmHg 62%
    01:00 +7°C° 0 mm 2 m/s 765 mmHg 63%
    02:00 +7°C° 0 mm 2 m/s 765 mmHg 64%
    03:00 +7°C° 0 mm 2 m/s 764 mmHg 65%
    04:00 +7°C° 0 mm 2 m/s 764 mmHg 66%
    05:00 +6°C° 0 mm 2 m/s 764 mmHg 67%
    06:00 +7°C° 0 mm 2 m/s 764 mmHg 68%
    07:00 +7°C° 0 mm 2 m/s 763 mmHg 68%
    08:00 +7°C° 0 mm 2 m/s 763 mmHg 68%
    09:00 +8°C° 0 mm 2 m/s 763 mmHg 64%
    10:00 +9°C° 0 mm 2 m/s 763 mmHg 61%
    11:00 +11°C° 0 mm 1 m/s 762 mmHg 57%
    12:00 +11°C° 0.1 mm 1 m/s 762 mmHg 58%
    13:00 +12°C° 0.1 mm 1 m/s 761 mmHg 58%
    14:00 +12°C° 0.1 mm 1 m/s 761 mmHg 59%
    15:00 +11°C° 0.1 mm 1 m/s 760 mmHg 62%
    16:00 +11°C° 0.1 mm 1 m/s 760 mmHg 65%
    17:00 +11°C° 0.1 mm 1 m/s 760 mmHg 68%
    18:00 +10°C° 0.1 mm 1 m/s 760 mmHg 72%
    19:00 +10°C° 0.1 mm 1 m/s 760 mmHg 75%
    20:00 +9°C° 0.1 mm 1 m/s 760 mmHg 78%
    21:00 +9°C° 0 mm 1 m/s 759 mmHg 80%
    22:00 +9°C° 0 mm 1 m/s 759 mmHg 81%
    23:00 +9°C° 0 mm 1 m/s 759 mmHg 82%
    Mostrar mais